This demonstration page uses our WeatherBlox Daily Observations layout. Learn more.

Left ArrowRight Arrow

Hourly Observations for August 20, 2021

Temp ( °F °C ) Dew Point ( °F °C ) Humidity (%) Winds ( mph kmh ) Pressure ( in mb ) Visibility ( mi km ) Precip ( " mm )
12:59 am 00:59 Mostly Clear 82 27.8 76 24.4 82 82 SSW 6 9 29.95 1014 9 14 0.00 0.00
1:59 am 01:59 Partly Cloudy 81 27.2 76 24.4 85 85 SSW 5 7 29.94 1014 9 14 0.00 0.00
2:59 am 02:59 Partly Cloudy 81 27.2 76 24.4 85 85 SW 7 11 29.92 1013 9 14 0.00 0.00
3:59 am 03:59 Partly Cloudy 81 27.2 76 24.4 85 85 SW 7 11 29.91 1013 8 13 0.00 0.00
4:59 am 04:59 Mostly Cloudy 81 27.2 75 23.9 82 82 WNW 15 24 29.91 1013 9 14 0.00 0.00
5:23 am 05:23 Mostly Cloudy 79 26.1 73 22.8 82 82 WNW 9 15 29.91 1013 10 16 0.00 0.00
5:46 am 05:46 Mostly Cloudy 79 26.1 73 22.8 82 82 NW 6 9 29.91 1013 10 16 0.00 0.00
5:59 am 05:59 Mostly Cloudy 79 26.1 73 22.8 82 82 WNW 3 6 29.91 1013 10 16 0.00 0.00
6:59 am 06:59 Mostly Cloudy 79 26.1 73 22.8 82 82 NNW 5 7 29.92 1013 9 14 0.00 0.00
7:59 am 07:59 Cloudy 79 26.1 72 22.2 79 79 NE 7 11 29.92 1013 9 14 0.00 0.00
8:59 am 08:59 Cloudy 80 26.7 73 22.8 79 79 E 6 9 29.91 1013 10 16 0.00 0.00
9:14 am 09:14 Cloudy with Thunderstorms 80 26.7 73 22.8 79 79 NNE 5 7 29.92 1013 3 4 0.04 1.02
9:24 am 09:24 Cloudy with Strong Thunderstorms 78 25.6 73 22.8 85 85 WNW 9 15 29.93 1014 1 1 0.25 6.35
9:39 am 09:39 Cloudy with Thunderstorms 77 25 74 23.3 90 90 Calm 29.93 1014 3 5 0.39 9.91
9:59 am 09:59 Cloudy with Thunderstorms 78 25.6 73 22.8 85 85 Calm 29.93 1013 10 16 0.40 10.16
10:32 am 10:32 Mostly Cloudy 80 26.7 73 22.8 79 79 NW 6 9 29.93 1014 8 13 0.00 0.00
10:59 am 10:59 Mostly Cloudy 81 27.2 73 22.8 77 77 N 5 7 29.93 1014 10 16 0.00 0.00
11:59 am 11:59 Mostly Cloudy 83 28.3 73 22.8 72 72 WNW 10 17 29.92 1013 10 16 0.00 0.00
12:59 pm 12:59 Mostly Cloudy 83 28.3 71 21.7 67 67 NW 10 17 29.92 1013 10 16 0.00 0.00
1:59 pm 13:59 Mostly Cloudy 83 28.3 72 22.2 70 70 NW 8 13 29.91 1013 10 16 0.00 0.00
2:59 pm 14:59 Cloudy 84 28.9 72 22.2 67 67 NNW 7 11 29.91 1013 10 16 0.00 0.00
3:59 pm 15:59 Mostly Cloudy 84 28.9 72 22.2 67 67 VRB 6 9 29.89 1012 10 16 0.00 0.00
4:59 pm 16:59 Cloudy 82 27.8 72 22.2 72 72 ESE 10 17 29.88 1012 10 16 0.00 0.00
5:59 pm 17:59 Mostly Cloudy 83 28.3 72 22.2 70 70 E 6 9 29.86 1011 10 16 0.00 0.00
6:59 pm 18:59 Mostly Cloudy 81 27.2 71 21.7 72 72 SSE 5 7 29.87 1012 10 16 0.00 0.00
7:59 pm 19:59 Mostly Cloudy 79 26.1 72 22.2 79 79 SSE 7 11 29.88 1012 10 16 0.00 0.00
8:59 pm 20:59 Mostly Cloudy with Light Rain 77 25 72 22.2 85 85 S 7 11 29.91 1013 7 11 0.02 0.51
9:59 pm 21:59 Mostly Cloudy 76 24.4 72 22.2 88 88 WSW 3 6 29.91 1013 10 16 0.01 0.25
10:59 pm 22:59 Mostly Cloudy 77 25 72 22.2 85 85 W 6 9 29.89 1012 10 16 0.00 0.00
11:59 pm 23:59 Partly Cloudy 75 23.9 69 20.6 82 82 SSE 5 7 29.91 1013 10 16 0.00 0.00

Powered by AerisWeather